User: anonymous   Login
Location: Banios
(43.0451°N, 0.2335°E)
Time: 05:32:28
(UTC+00:00)
Language:

Lacrosse 4 Rocket - Orbit

View from above orbital plane
View from above orbital plane
View from above satellite
View from above satellite

Ground track
Ground track

The orbit data is extracted from the following two-line orbital elements,

1 26474U 00047B   21112.26565607  .00000284  00000-0  35271-4 0  9994
2 26474  67.9931 305.5641 0059275 221.6570 138.0051 14.96127801125437
Epoch (UTC): 22 April 2021 06:22:32
Eccentricity: 0.0059275
inclination: 67.9931°
perigee height: 537 km
apogee height: 620 km
right ascension of ascending node: 305.5641°
argument of perigee: 221.6570°
revolutions per day: 14.96127801
mean anomaly at epoch: 138.0051°
orbit number at epoch: 12543

The dashed part of the orbit path shows where the satellite is in the earth's shadow,  

DLR